Location: Shepherdstown, WV
(39.4326°N, 77.8042°W)
Time: 06:30:59
(UTC-04:00)

Vanguard 1 - Pass Details

Date: 06 August 2021
Orbit: 652 x 3831 km, 34.3° (Epoch: 24 September)

Event Time Altitude Azimuth Distance (km) Brightness Sun altitude
Rises 10:37:04 0° 243° (WSW) 3,013 12.3 48.4°
Reaches altitude 10° 10:39:28 10° 234° (SW) 2,047 11.6 48.8°
Maximum altitude 10:43:33 38° 165° (SSE) 1,037 11.2 49.6°
Drops below altitude 10° 10:48:23 10° 98° (E) 2,421 12.9 50.4°
Sets 10:51:28 0° 91° (E) 3,659 13.5 50.9°
